Regional Weather Roundup
Issued by NWS

Home | Current Version | Previous Version | Graphics & Text | Print | Product List | Glossary On
Versions: 1 2 3 4 5 6 7 8 9 10 11 12 13 14 15 16 17 18 19 20 21 22 23 24 25 26 27 28 29 30 31 32 33 34 35 36 37 38 39 40 41 42 43 44 45 46 47 48 49 50
000
ASUS43 KOAX 142202
RWRNE

WEATHER ROUNDUP FOR NEBRASKA
NATIONAL WEATHER SERVICE OMAHA NE
400 PM CST SUN FEB 14 2016

NOTES: SATELLITE DATA IS BEING USED TO AUGMENT CLOUD COVER ABOVE
       12000 FEET.
       "FAIR" INDICATES FEW OR NO CLOUDS BELOW 12,000 FEET WITH NO
       SIGNIFICANT WEATHER AND/OR OBSTRUCTIONS TO VISIBILITY.

  * THESE STATIONS DO NOT REPORT WEATHER SUCH AS RAIN...SNOW OR FOG.

NEZ001>004-019>022-054>056-142300-
NEBRASKA PANHANDLE

CITY           SKY/WX    TMP DP  RH WIND       PRES   REMARKS
SCOTTSBLUFF    LGT RAIN  48  30  49 NW14G24   29.81R
ALLIANCE       SUNNY     48  23  37 NW20      29.80R
CHADRON        PTSUNNY   51  25  36 NW20G28   29.80S
SIDNEY         CLOUDY    48  28  46 NW21G30   29.81F
$$

NEZ057>060-069>072-079>082-142300-
SOUTHWEST NEBRASKA

CITY           SKY/WX    TMP DP  RH WIND       PRES   REMARKS
NORTH PLATTE   SUNNY     48  28  46 W12       29.82S
IMPERIAL       CLOUDY    47  25  42 SW12      29.82F
MCCOOK         CLOUDY    45  29  53 SW8       29.84F
$$

NEZ005>010-023>029-035>040-094-142300-
NORTH CENTRAL NEBRASKA

CITY           SKY/WX    TMP DP  RH WIND       PRES   REMARKS
VALENTINE      CLOUDY    47  25  42 NW12      29.78R
AINSWORTH      PTSUNNY   48  27  44 W15       29.77S
BROKEN BOW     CLOUDY    50  26  39 W13       29.79S
ORD            CLOUDY    48  29  47 NW7       29.79R
$$

NEZ041-046>049-061>064-073>077-083>087-142300-
SOUTH CENTRAL NEBRASKA

CITY           SKY/WX    TMP DP  RH WIND       PRES   REMARKS
GRAND ISLAND   CLOUDY    44  30  57 SW10      29.83S
HASTINGS       PTSUNNY   42  31  64 W8        29.83S
HEBRON         MOSUNNY   46  33  60 W7        29.86R
KEARNEY *      MOSUNNY   48  30  49 SW13G18   29.83F
YORK           CLOUDY    45  36  70 W5        29.84S
$$

NEZ011>018-030>034-042>045-142300-
NORTHEAST NEBRASKA

CITY           SKY/WX    TMP DP  RH WIND       PRES   REMARKS
NORFOLK        CLOUDY    38  31  76 NW6       29.81R WCI  33
BLAIR          CLOUDY    35  29  80 W7        29.84R WCI  29
COLUMBUS *     MOSUNNY   39  28  65 CALM      29.84S
FREMONT        CLOUDY    35  29  79 NW3       29.86R
TEKAMAH        CLOUDY    32  26  78 NW9       29.86R WCI  24
$$

NEZ050>053-065>068-078-088>093-142300-
SOUTHEAST NEBRASKA

CITY           SKY/WX    TMP DP  RH WIND       PRES   REMARKS
LINCOLN        CLOUDY    42  33  70 N3        29.87R
OMAHA EPPLEY   CLOUDY    36  28  73 W16       29.85R WCI  26
BEATRICE       CLOUDY    45  32  61 W10       29.85S
FALLS CITY     MOSUNNY   48  32  53 N9        29.84R
NEBRASKA CITY  CLOUDY    40  30  67 NW9       29.86R WCI  34
$$

NEZ044-045-051>053-067-142300-
OMAHA AREA

CITY           SKY/WX    TMP DP  RH WIND       PRES   REMARKS
OMAHA EPPLEY   CLOUDY    36  28  73 W16       29.85R WCI  26
BLAIR          CLOUDY    35  29  80 W7        29.84R WCI  29
FREMONT        CLOUDY    35  29  79 NW3       29.86R
OFFUTT AFB     CLOUDY    38  30  71 W13       29.84R WCI  30
WAHOO          CLOUDY    36  31  83 N3        29.85R
$$



USA.gov is the U.S. government's official web portal to all federal, state and local government web resources and services.